Chiang Mai, Thailand

6:26 AM ICT on January 27, 2015 (GMT +0700)
ThaiWx Station | Change Station
CLOSE
Current Station
Personal Weather Station
Location: Chiang Mai, Pa Daet
Elevation: 1007 ft
Nearby Weather Stations

Elev 1007 ft 18.77 °N, 98.97 °E | Updated 2 minutes ago

Partly Cloudy
Partly Cloudy
64.9 °F
Feels Like 64.9 °F
N
0.0
Wind Variable Wind from SW
Gusts 0.0 mph

Today
High -- | Low -- °F
--% Chance of Precip.
Yesterday
High -- | Low -- °F
Precip. -- in
6:59 AM 6:14 PM
Waxing Crescent, 47% visible
Pressure 30.01 in
Visibility 5.0 miles
Clouds Few 4000 ft
Dew Point 57 °F
Humidity 76%
Rainfall 0.00 in
Snow Depth Not available.
UV 0 out of 12
Pollen Not available.
Air Quality Not available.
Flu Activity Not available.
METAR VTCC 262200Z 00000KT 8000 FEW040 15/13 Q1016 A3001 NOSIG

More Conditions Fewer Conditions

Pressure 30.01 in
Visibility 5.0 miles
Clouds Few 4000 ft
Dew Point 57 °F
Humidity 76%
Rainfall 0.00 in
Snow Depth Not available.
UV 0 out of 12
Pollen Not available.
Air Quality Not available.
Flu Activity Not available.
METAR VTCC 262200Z 00000KT 8000 FEW040 15/13 Q1016 A3001 NOSIG

More Conditions Fewer Conditions

10-Day Weather Forecast

Almanac

Astronomy

Jan. 27, 2015 Rise Set
Actual Time
Civil Twilight
Nautical Twilight
Astronomical Twilight
Moon
Length of Visible Light
Length of Day
Tomorrow will be .
, % of the Moon is Illuminated

Today's Extremes

Country Highs Country Lows

Community

WunderPhotos

Upload Photos

1,790,394 photos uploaded!

WunderBlogs® & News

Nearby

Air Quality

  Air Quality AQ Index Pollutant
Not available.

Snow Depth

Station Depth Elevation

Earthquake Activity

City Distance Mag. Time & Date
Minimum magnitude displayed is 2.5.

Coastal Water Temperatures

Place Temperature

Nearby Weather Stations